Hourly Data Report for September 04, 2017

All times are specified in Local Standard Time (LST). Add 1 hour to adjust for Daylight Saving Time where and when it is observed.

CLYDE RIVER A
NUNAVUT

70°29'09.000" N
68°31'01.000" W
26.50 m
2400804
71090
YCY

Download Data

Hourly Data (September 2017)
Hourly Data Report for September 4, 2017
Temp Definition
°C
Dew Point Temp Definition
°C
Rel Hum Definition
%
Wind Dir Definition
10's deg

Wind Spd Definition
km/h
Visibility Definition
km
Stn Press Definition
kPa
Hmdx Definition


Wind Chill Definition


Weather Definition


TIME
00:00 Legend Double Dagger 1.9 -1.8 77 15 9 16.1 100.65     LegendNANA
01:00 Legend Double Dagger 1.5 -1.4 81 14 8 16.1 100.64     LegendNANA
02:00 Legend Double Dagger 1.4 -1.5 81 14 17 16.1 100.64     LegendNANA
03:00 Legend Double Dagger 1.8 -1.9 77 15 5 16.1 100.66     LegendNANA
04:00 Legend Double Dagger 1.0 -1.6 83 11 17 16.1 100.68     LegendNANA
05:00 Legend Double Dagger 0.5 -1.3 88 13 11 16.1 100.71     LegendNANA
06:00 Legend Double Dagger 1.4 -1.4 82 18 4 16.1 100.72     LegendNANA
07:00 Legend Double Dagger 2.3 -1.6 75   0 16.1 100.76     LegendNANA
08:00 Legend Double Dagger 3.0 -1.3 73   0 16.1 100.79     LegendNANA
09:00 Legend Double Dagger 3.5 -0.6 74   0 16.1 100.80     LegendNANA
10:00 Legend Double Dagger 4.4 0.8 77 2 8 16.1 100.80     LegendNANA
11:00 Legend Double Dagger 4.8 1.4 79 6 11 16.1 100.80     LegendNANA
12:00 Legend Double Dagger 4.0 0.3 77 12 8 16.1 100.81     LegendNANA
13:00 Legend Double Dagger 6.0 1.1 71 36 17 16.1 100.84     LegendNANA
14:00 Legend Double Dagger 5.2 0.7 73 32 9 16.1 100.88     LegendNANA
15:00 Legend Double Dagger 5.2 1.2 76 36 13 16.1 100.90     LegendNANA
16:00 Legend Double Dagger 4.8 1.3 78 34 15 16.1 100.94     LegendNANA
17:00 Legend Double Dagger 4.0 1.5 84 36 17 16.1 100.95     LegendNANA
18:00 Legend Double Dagger 3.6 0.6 81 35 13 16.1 100.99     LegendNANA
19:00 Legend Double Dagger 3.1 0.4 82 33 11 16.1 101.01     LegendNANA
20:00 Legend Double Dagger 2.4 0.3 86 34 8 16.1 101.02     LegendNANA
21:00 Legend Double Dagger 2.0 0.2 88 1 4 16.1 101.00     LegendNANA
22:00 Legend Double Dagger 2.0 0.2 88 22 4 16.1 100.97     LegendNANA
23:00 Legend Double Dagger 1.7 0.4 91   0 16.1 100.96     LegendNANA

Notes on Data Quality.

Legend

  • E = Estimated
  • M = Missing
  • NA = Not Available
  • ‡ = Partner data that is not subject to review by the National Climate Archives
Date modified: